Seatac, Washington, United States
Lat: 47.45N, Lon: 122.32W
Wx Zone: WAZ508
Local Info
Past Weather Observations for Today

NOTE: This archive is for the closest National Weather Service station to Seatac. Information may differ from the station used for current weather conditions.

Click here for Long-term Archive

Time Weather Temperature Dewpoint Humidity Pressure Winds Precip Visibility
15:53
Mostly Cloudy
63°F / 17°C 48°F / 9°C 59% 29.98 in
(1015 mb)
SSW 9.2 mph
(SSW 15 kph)
- 10SM
14:53
Mostly Cloudy
64°F / 18°C 48°F / 9°C 56% 29.98 in
(1015 mb)
SSW 9.2 mph
(SSW 15 kph)
- 10SM
13:53
Mostly Cloudy
64°F / 18°C 52°F / 11°C 64% 29.98 in
(1015 mb)
W 10.4 mph
(W 17 kph)
- 10SM
12:53
Mostly Cloudy
64°F / 18°C 52°F / 11°C 64% 30.01 in
(1016 mb)
SW 10.4 mph
(SW 17 kph)
- 10SM
11:53
Mostly Cloudy
63°F / 17°C 52°F / 11°C 68% 30.04 in
(1017 mb)
SW 10.4 mph
(SW 17 kph)
- 10SM
10:53
Mostly Cloudy
61°F / 16°C 52°F / 11°C 72% 30.04 in
(1017 mb)
SW 15 mph
(SW 24 kph)
- 10SM
09:53
Mostly Cloudy
59°F / 15°C 52°F / 11°C 77% 30.06 in
(1018 mb)
S 8.1 mph
(S 13 kph)
- 10SM
08:53
Mostly Cloudy
54°F / 12°C 50°F / 10°C 88% 30.04 in
(1017 mb)
S 3.5 mph
(S 6 kph)
- 10SM
08:07
Mostly Cloudy
Fog
52°F / 11°C 48°F / 9°C 88% 30.04 in
(1017 mb)
SSE 4.6 mph
(SSE 7 kph)
- 5SM
07:53
Mostly Cloudy
Fog And Mist
52°F / 11°C 48°F / 9°C 88% 30.04 in
(1017 mb)
SE 6.9 mph
(SE 11 kph)
- 3/4SM
07:40
Mostly Cloudy
Fog And Mist
50°F / 10°C 48°F / 9°C 94% 30.04 in
(1017 mb)
SE 8.1 mph
(SE 13 kph)
- 3/4SM
07:25
Mostly Cloudy
Fog And Mist
50°F / 10°C 48°F / 9°C 94% 30.04 in
(1017 mb)
SE 6.9 mph
(SE 11 kph)
- 3SM
06:53
Mostly Cloudy
Fog
48°F / 9°C 46°F / 8°C 94% 30.04 in
(1017 mb)
SSE 4.6 mph
(SSE 7 kph)
- 1/2SM
06:46
Mostly Cloudy
Fog
48°F / 9°C 46°F / 8°C 94% 30.04 in
(1017 mb)
SSE 4.6 mph
(SSE 7 kph)
- 1/2SM
05:53
Mostly Cloudy
Fog
48°F / 9°C 46°F / 8°C 94% 30.04 in
(1017 mb)
SSE 3.5 mph
(SSE 6 kph)
- 10SM
04:53
Clear
48°F / 9°C 46°F / 8°C 94% 30.04 in
(1017 mb)
Calm - 10SM
03:53
Clear
50°F / 10°C 46°F / 8°C 88% 30.04 in
(1017 mb)
Calm - 10SM
02:53
Clear
52°F / 11°C 46°F / 8°C 82% 30.06 in
(1018 mb)
N 3.5 mph
(N 6 kph)
- 10SM
01:53
Partly Cloudy
52°F / 11°C 48°F / 9°C 88% 30.09 in
(1019 mb)
NE 5.8 mph
(NE 9 kph)
- 10SM
00:53
Partly Cloudy
54°F / 12°C 48°F / 9°C 82% 30.12 in
(1020 mb)
NE 6.9 mph
(NE 11 kph)
- 10SM
Time Weather Temperature Dewpoint Humidity Pressure Winds Precip Visibility


Weather for websites

WeatherForYou.com, LLC is not responsible for any damages or problems caused by this service. Current weather conditions are obtained from the closest station including government and personal stations which may have varying degrees of accuracy. Weather forecasts are derived from the NOAA NDFD. Like all things, this site belongs to Jesus Christ... He just trusts me to maintain it. If you have any questions or comments email webmaster@weatherforyou.com

Copyright © 2015, WeatherForYou.com LLC. All rights reserved.